| time (UTC) | temp C | wind direction | speed KPH | gust KPH | rain 1hr cm | rain 24hr cm | rain mn cm | humidity % | barometer mb |
| 20260507051002 | 7 | 158 | 3.2 | 9.7 | 0.00 | 0.58 | 0.00 | 87 | 1007.2 |
| 20260507050502 | 7 | 162 | 4.8 | 11.3 | 0.00 | 0.58 | 0.00 | 87 | 1007.3 |
| 20260507050006 | 7 | 142 | 4.8 | 11.3 | 0.00 | 0.58 | 0.00 | 88 | 1007.3 |
| 20260507045504 | 6 | 150 | 4.8 | 8.0 | 0.00 | 0.58 | 0.00 | 88 | 1007.5 |
| 20260507045004 | 7 | 169 | 6.4 | 11.3 | 0.00 | 0.58 | 0.00 | 88 | 1007.6 |
| 20260507044505 | 7 | 135 | 6.4 | 11.3 | 0.00 | 0.58 | 0.00 | 88 | 1007.6 |
| 20260507044004 | 6 | 159 | 6.4 | 11.3 | 0.00 | 0.58 | 0.00 | 88 | 1007.7 |
| 20260507043504 | 6 | 140 | 4.8 | 9.7 | 0.00 | 0.58 | 0.00 | 88 | 1007.8 |
| 20260507043004 | 6 | 178 | 4.8 | 8.0 | 0.00 | 0.58 | 0.00 | 88 | 1007.8 |
| 20260507042504 | 6 | 163 | 4.8 | 8.0 | 0.00 | 0.58 | 0.00 | 88 | 1007.9 |
| 20260507042004 | 7 | 147 | 6.4 | 11.3 | 0.00 | 0.58 | 0.00 | 88 | 1007.9 |
| 20260507040504 | 7 | 180 | 4.8 | 9.7 | 0.00 | 0.58 | 0.00 | 88 | 1008.0 |
| 20260507040008 | 7 | 155 | 4.8 | 8.0 | 0.00 | 0.58 | 0.00 | 87 | 1008.0 |
| 20260507035504 | 7 | 152 | 4.8 | 8.0 | 0.00 | 0.58 | 0.58 | 87 | 1008.0 |
| 20260507035004 | 7 | 165 | 4.8 | 8.0 | 0.00 | 0.58 | 0.58 | 87 | 1008.1 |
| 20260507034505 | 7 | 176 | 4.8 | 8.0 | 0.00 | 0.58 | 0.58 | 87 | 1008.0 |
| 20260507034004 | 7 | 150 | 4.8 | 9.7 | 0.00 | 0.58 | 0.58 | 87 | 1008.1 |
| 20260507033505 | 7 | 187 | 4.8 | 11.3 | 0.00 | 0.58 | 0.58 | 87 | 1008.1 |
| 20260507032005 | 7 | 178 | 4.8 | 8.0 | 0.00 | 0.58 | 0.58 | 87 | 1008.2 |
| 20260507031504 | 7 | 156 | 4.8 | 9.7 | 0.00 | 0.58 | 0.58 | 86 | 1008.3 |
| 20260507030007 | 7 | 172 | 6.4 | 8.0 | 0.00 | 0.58 | 0.58 | 86 | 1008.3 |
| 20260507025504 | 7 | 188 | 4.8 | 9.7 | 0.00 | 0.58 | 0.58 | 86 | 1008.2 |
| 20260507025005 | 7 | 182 | 6.4 | 11.3 | 0.00 | 0.58 | 0.58 | 85 | 1008.2 |
| 20260507024004 | 7 | 175 | 4.8 | 8.0 | 0.00 | 0.58 | 0.58 | 85 | 1008.2 |
| 20260507023504 | 7 | 215 | 4.8 | 8.0 | 0.00 | 0.58 | 0.58 | 85 | 1008.3 |
| 20260507023005 | 7 | 195 | 4.8 | 9.7 | 0.00 | 0.58 | 0.58 | 85 | 1008.3 |
| 20260507022004 | 7 | 183 | 4.8 | 9.7 | 0.00 | 0.58 | 0.58 | 85 | 1008.4 |
| 20260507021505 | 7 | 196 | 4.8 | 9.7 | 0.00 | 0.58 | 0.58 | 84 | 1008.5 |
| 20260507021004 | 7 | 229 | 6.4 | 11.3 | 0.00 | 0.58 | 0.58 | 84 | 1008.5 |
| 20260507020505 | 7 | 205 | 6.4 | 11.3 | 0.00 | 0.58 | 0.58 | 84 | 1008.5 |
| 20260507015504 | 7 | 194 | 6.4 | 12.9 | 0.00 | 0.58 | 0.58 | 84 | 1008.4 |
| 20260507015004 | 7 | 213 | 6.4 | 12.9 | 0.00 | 0.58 | 0.58 | 84 | 1008.5 |
| 20260507014505 | 7 | 232 | 8.0 | 14.5 | 0.00 | 0.58 | 0.58 | 84 | 1008.5 |
| 20260507014005 | 7 | 222 | 8.0 | 16.1 | 0.00 | 0.58 | 0.58 | 84 | 1008.7 |
| 20260507013504 | 7 | 221 | 8.0 | 16.1 | 0.00 | 0.58 | 0.58 | 84 | 1008.8 |
| 20260507013005 | 7 | 238 | 8.0 | 14.5 | 0.00 | 0.58 | 0.58 | 84 | 1008.8 |
| 20260507012505 | 7 | 266 | 6.4 | 11.3 | 0.00 | 0.58 | 0.58 | 84 | 1008.8 |
| 20260507012004 | 7 | 227 | 6.4 | 11.3 | 0.00 | 0.58 | 0.58 | 84 | 1008.8 |
| 20260507011504 | 7 | 276 | 4.8 | 12.9 | 0.00 | 0.58 | 0.58 | 84 | 1008.9 |
| 20260507011004 | 7 | 269 | 6.4 | 12.9 | 0.00 | 0.58 | 0.58 | 84 | 1008.9 |
| 20260507010504 | 7 | 263 | 8.0 | 12.9 | 0.00 | 0.58 | 0.58 | 83 | 1008.8 |
| 20260507010007 | 7 | 228 | 6.4 | 12.9 | 0.00 | 0.58 | 0.58 | 83 | 1008.7 |
| 20260507005504 | 7 | 215 | 4.8 | 12.9 | 0.00 | 0.58 | 0.58 | 83 | 1008.7 |
| 20260507005004 | 7 | 252 | 4.8 | 12.9 | 0.00 | 0.58 | 0.58 | 83 | 1008.5 |
| 20260507004004 | 8 | 215 | 4.8 | 9.7 | 0.00 | 0.58 | 0.58 | 82 | 1008.4 |
| 20260507003504 | 8 | 222 | 6.4 | 11.3 | 0.00 | 0.58 | 0.58 | 81 | 1008.4 |
| 20260507002504 | 8 | 198 | 4.8 | 9.7 | 0.00 | 0.58 | 0.58 | 81 | 1008.3 |
| 20260507001505 | 8 | 225 | 6.4 | 12.9 | 0.00 | 0.58 | 0.58 | 81 | 1008.1 |
| 20260507001004 | 8 | 222 | 6.4 | 14.5 | 0.00 | 0.58 | 0.58 | 81 | 1008.0 |
| 20260507000505 | 8 | 241 | 6.4 | 14.5 | 0.00 | 0.58 | 0.58 | 80 | 1008.0 |
| 20260507000008 | 8 | 225 | 4.8 | 11.3 | 0.00 | 0.58 | 0.58 | 80 | 1007.9 |
| 20260506235004 | 8 | 254 | 4.8 | 11.3 | 0.00 | 0.58 | 0.58 | 80 | 1007.8 |
| 20260506234504 | 8 | 221 | 4.8 | 11.3 | 0.00 | 0.58 | 0.58 | 81 | 1007.9 |
| 20260506234004 | 8 | 212 | 4.8 | 8.0 | 0.00 | 0.58 | 0.58 | 81 | 1007.8 |
| 20260506233504 | 8 | 175 | 4.8 | 11.3 | 0.00 | 0.58 | 0.58 | 80 | 1007.8 |
| 20260506233005 | 8 | 188 | 4.8 | 11.3 | 0.00 | 0.58 | 0.58 | 80 | 1007.9 |
| 20260506232505 | 8 | 203 | 4.8 | 11.3 | 0.00 | 0.58 | 0.58 | 80 | 1007.9 |
| 20260506232005 | 8 | 173 | 4.8 | 11.3 | 0.00 | 0.58 | 0.58 | 80 | 1007.9 |
| 20260506231004 | 8 | 226 | 6.4 | 9.7 | 0.00 | 0.58 | 0.58 | 79 | 1007.9 |
| 20260506230504 | 8 | 213 | 4.8 | 8.0 | 0.00 | 0.58 | 0.58 | 79 | 1007.7 |
| 20260506230007 | 8 | 221 | 4.8 | 9.7 | 0.00 | 0.58 | 0.58 | 79 | 1007.6 |
| 20260506225504 | 8 | 217 | 4.8 | 8.0 | 0.00 | 0.58 | 0.58 | 79 | 1007.7 |
| 20260506225005 | 8 | 233 | 4.8 | 8.0 | 0.00 | 0.58 | 0.58 | 79 | 1007.7 |
| 20260506224505 | 8 | 286 | 4.8 | 11.3 | 0.00 | 0.58 | 0.58 | 79 | 1007.6 |
| 20260506223504 | 8 | 235 | 4.8 | 11.3 | 0.00 | 0.58 | 0.58 | 79 | 1007.8 |
| 20260506223004 | 8 | 228 | 4.8 | 11.3 | 0.00 | 0.58 | 0.58 | 79 | 1007.9 |
| 20260506222004 | 8 | 241 | 4.8 | 9.7 | 0.00 | 0.58 | 0.58 | 78 | 1007.9 |
| 20260506221505 | 8 | 217 | 6.4 | 9.7 | 0.00 | 0.58 | 0.58 | 78 | 1007.9 |
| 20260506220504 | 8 | 235 | 4.8 | 12.9 | 0.00 | 0.58 | 0.58 | 77 | 1008.0 |
| 20260506215504 | 8 | 197 | 6.4 | 11.3 | 0.00 | 0.58 | 0.58 | 78 | 1008.0 |
| 20260506215005 | 8 | 232 | 8.0 | 14.5 | 0.00 | 0.58 | 0.58 | 78 | 1008.1 |
| 20260506214505 | 8 | 194 | 6.4 | 14.5 | 0.00 | 0.58 | 0.58 | 78 | 1008.0 |
| 20260506214004 | 8 | 179 | 4.8 | 8.0 | 0.00 | 0.58 | 0.58 | 79 | 1007.9 |
| 20260506212504 | 8 | 176 | 6.4 | 11.3 | 0.00 | 0.58 | 0.58 | 80 | 1007.9 |
| 20260506212004 | 8 | 215 | 4.8 | 11.3 | 0.00 | 0.58 | 0.58 | 81 | 1007.8 |
| 20260506211505 | 8 | 205 | 6.4 | 11.3 | 0.00 | 0.58 | 0.58 | 81 | 1007.8 |
| 20260506211004 | 8 | 234 | 6.4 | 11.3 | 0.00 | 0.58 | 0.58 | 81 | 1007.8 |
| 20260506205504 | 8 | 209 | 6.4 | 11.3 | 0.00 | 0.58 | 0.58 | 82 | 1007.9 |
| 20260506205004 | 8 | 268 | 6.4 | 11.3 | 0.00 | 0.58 | 0.58 | 82 | 1008.0 |
| 20260506204504 | 8 | 198 | 6.4 | 12.9 | 0.00 | 0.58 | 0.58 | 82 | 1008.1 |
| 20260506204004 | 8 | 225 | 6.4 | 11.3 | 0.00 | 0.58 | 0.58 | 82 | 1008.2 |
| 20260506203504 | 8 | 192 | 6.4 | 11.3 | 0.00 | 0.58 | 0.58 | 82 | 1008.2 |
| 20260506203005 | 8 | 202 | 6.4 | 9.7 | 0.00 | 0.58 | 0.58 | 82 | 1008.2 |
| 20260506202504 | 8 | 225 | 4.8 | 9.7 | 0.00 | 0.58 | 0.58 | 82 | 1008.1 |
| 20260506202004 | 8 | 222 | 4.8 | 9.7 | 0.00 | 0.58 | 0.58 | 82 | 1008.0 |
| 20260506201004 | 8 | 236 | 4.8 | 8.0 | 0.00 | 0.58 | 0.58 | 81 | 1008.3 |
| 20260506200504 | 8 | 205 | 4.8 | 11.3 | 0.00 | 0.58 | 0.58 | 82 | 1008.2 |
| 20260506200006 | 8 | 217 | 4.8 | 11.3 | 0.00 | 0.58 | 0.58 | 81 | 1008.2 |
| 20260506195504 | 8 | 231 | 6.4 | 11.3 | 0.00 | 0.58 | 0.58 | 82 | 1008.3 |
| 20260506195004 | 7 | 215 | 6.4 | 11.3 | 0.00 | 0.58 | 0.58 | 82 | 1008.4 |
| 20260506194505 | 7 | 218 | 6.4 | 12.9 | 0.00 | 0.58 | 0.58 | 82 | 1008.3 |
| 20260506194004 | 7 | 186 | 6.4 | 12.9 | 0.00 | 0.58 | 0.58 | 82 | 1008.5 |
| 20260506193505 | 7 | 198 | 6.4 | 9.7 | 0.00 | 0.58 | 0.58 | 82 | 1008.7 |
| 20260506193004 | 7 | 200 | 6.4 | 9.7 | 0.00 | 0.58 | 0.58 | 82 | 1008.7 |
| 20260506191504 | 7 | 205 | 6.4 | 11.3 | 0.00 | 0.58 | 0.58 | 81 | 1008.6 |
| 20260506191004 | 7 | 240 | 6.4 | 11.3 | 0.00 | 0.58 | 0.58 | 80 | 1008.8 |
| 20260506190504 | 7 | 221 | 4.8 | 9.7 | 0.00 | 0.58 | 0.58 | 80 | 1008.6 |
| 20260506190006 | 7 | 211 | 4.8 | 9.7 | 0.00 | 0.58 | 0.58 | 81 | 1008.8 |
| 20260506185503 | 7 | 205 | 4.8 | 9.7 | 0.00 | 0.58 | 0.58 | 81 | 1008.7 |
| 20260506184003 | 7 | 205 | 6.4 | 12.9 | 0.00 | 0.58 | 0.58 | 82 | 1008.8 |
| 20260506183005 | 7 | 232 | 6.4 | 11.3 | 0.00 | 0.58 | 0.58 | 83 | 1008.7 |
| 20260506182503 | 7 | 240 | 4.8 | 11.3 | 0.00 | 0.58 | 0.58 | 83 | 1008.7 |
| 20260506182003 | 7 | 203 | 6.4 | 9.7 | 0.00 | 0.58 | 0.58 | 83 | 1008.9 |
| 20260506181503 | 7 | 199 | 6.4 | 12.9 | 0.00 | 0.58 | 0.58 | 82 | 1008.7 |
| 20260506181003 | 7 | 182 | 6.4 | 12.9 | 0.00 | 0.58 | 0.58 | 83 | 1008.6 |
| 20260506180503 | 7 | 204 | 4.8 | 8.0 | 0.00 | 0.58 | 0.58 | 85 | 1008.6 |
| 20260506180006 | 7 | 225 | 6.4 | 14.5 | 0.00 | 0.58 | 0.58 | 85 | 1008.6 |
| 20260506175503 | 7 | 225 | 4.8 | 14.5 | 0.00 | 0.58 | 0.58 | 85 | 1008.8 |
| 20260506175003 | 7 | 234 | 4.8 | 14.5 | 0.00 | 0.58 | 0.58 | 86 | 1008.8 |
| 20260506174503 | 7 | 235 | 6.4 | 14.5 | 0.00 | 0.58 | 0.58 | 87 | 1008.9 |
| 20260506174003 | 7 | 254 | 6.4 | 14.5 | 0.00 | 0.58 | 0.58 | 88 | 1008.9 |
| 20260506173503 | 6 | 198 | 6.4 | 14.5 | 0.00 | 0.58 | 0.58 | 87 | 1008.9 |
| 20260506173004 | 7 | 222 | 6.4 | 14.5 | 0.00 | 0.58 | 0.58 | 88 | 1008.9 |
| 20260506172504 | 6 | 217 | 6.4 | 14.5 | 0.00 | 0.58 | 0.58 | 90 | 1009.0 |
| 20260506171503 | 6 | 215 | 8.0 | 12.9 | 0.00 | 0.58 | 0.58 | 90 | 1009.1 |
| 20260506171003 | 6 | 227 | 8.0 | 14.5 | 0.00 | 0.58 | 0.58 | 89 | 1009.3 |
| 20260506170503 | 6 | 230 | 6.4 | 14.5 | 0.00 | 0.58 | 0.58 | 89 | 1009.3 |
| 20260506170005 | 6 | 200 | 6.4 | 14.5 | 0.00 | 0.58 | 0.58 | 89 | 1009.2 |
| 20260506165503 | 6 | 180 | 6.4 | 14.5 | 0.00 | 0.58 | 0.58 | 89 | 1009.3 |
| 20260506165003 | 6 | 189 | 6.4 | 11.3 | 0.00 | 0.58 | 0.58 | 90 | 1009.3 |
| 20260506164503 | 6 | 197 | 6.4 | 11.3 | 0.00 | 0.58 | 0.58 | 90 | 1009.4 |
| 20260506164003 | 6 | 225 | 4.8 | 9.7 | 0.03 | 0.58 | 0.58 | 90 | 1009.4 |
| 20260506163503 | 6 | 183 | 6.4 | 11.3 | 0.03 | 0.58 | 0.58 | 90 | 1009.4 |
| 20260506163004 | 6 | 196 | 6.4 | 11.3 | 0.03 | 0.58 | 0.58 | 90 | 1009.3 |
| 20260506162504 | 6 | 164 | 6.4 | 11.3 | 0.03 | 0.58 | 0.58 | 91 | 1009.3 |
| 20260506162003 | 6 | 215 | 4.8 | 11.3 | 0.03 | 0.58 | 0.58 | 90 | 1009.4 |
| 20260506161503 | 6 | 184 | 4.8 | 12.9 | 0.03 | 0.58 | 0.58 | 91 | 1009.5 |
| 20260506160005 | 6 | 167 | 6.4 | 9.7 | 0.05 | 0.58 | 0.58 | 91 | 1009.7 |
| 20260506155505 | 6 | 223 | 6.4 | 9.7 | 0.05 | 0.58 | 0.58 | 91 | 1009.7 |
| 20260506155003 | 5 | 165 | 6.4 | 9.7 | 0.08 | 0.58 | 0.58 | 92 | 1009.9 |
| 20260506154503 | 5 | 231 | 6.4 | 12.9 | 0.08 | 0.58 | 0.58 | 91 | 1010.0 |
| 20260506154003 | 6 | 213 | 4.8 | 12.9 | 0.05 | 0.56 | 0.56 | 92 | 1009.9 |
| 20260506153503 | 5 | 258 | 6.4 | 11.3 | 0.05 | 0.56 | 0.56 | 91 | 1009.9 |
| 20260506153004 | 5 | 236 | 6.4 | 12.9 | 0.08 | 0.56 | 0.56 | 91 | 1009.9 |
| 20260506152503 | 5 | 188 | 6.4 | 12.9 | 0.08 | 0.56 | 0.56 | 91 | 1010.0 |
| 20260506152002 | 5 | 226 | 8.0 | 14.5 | 0.10 | 0.56 | 0.56 | 92 | 1009.9 |
| 20260506151504 | 5 | 198 | 9.7 | 14.5 | 0.10 | 0.56 | 0.56 | 92 | 1010.0 |
| 20260506151003 | 5 | 198 | 8.0 | 14.5 | 0.13 | 0.56 | 0.56 | 92 | 1010.0 |
| 20260506150503 | 5 | 217 | 8.0 | 14.5 | 0.10 | 0.53 | 0.53 | 92 | 1010.0 |
| 20260506150005 | 5 | 198 | 8.0 | 14.5 | 0.13 | 0.53 | 0.53 | 91 | 1009.9 |
| 20260506145003 | 6 | 202 | 6.4 | 12.9 | 0.13 | 0.51 | 0.51 | 92 | 1009.9 |
| 20260506144004 | 5 | 224 | 6.4 | 9.7 | 0.18 | 0.51 | 0.51 | 91 | 1009.8 |
| 20260506143503 | 5 | 218 | 6.4 | 9.7 | 0.20 | 0.51 | 0.51 | 91 | 1009.8 |
| 20260506143004 | 5 | 205 | 4.8 | 9.7 | 0.18 | 0.48 | 0.48 | 91 | 1009.7 |
| 20260506142003 | 5 | 250 | 8.0 | 12.9 | 0.18 | 0.46 | 0.46 | 91 | 1009.8 |
| 20260506141503 | 6 | 230 | 8.0 | 12.9 | 0.18 | 0.46 | 0.46 | 91 | 1009.8 |
| 20260506140504 | 5 | 197 | 6.4 | 12.9 | 0.18 | 0.43 | 0.43 | 91 | 1009.9 |
| 20260506140005 | 6 | 215 | 4.8 | 11.3 | 0.15 | 0.41 | 0.41 | 91 | 1009.7 |
| 20260506135503 | 6 | 261 | 4.8 | 8.0 | 0.18 | 0.41 | 0.41 | 91 | 1009.8 |
| 20260506135003 | 6 | 243 | 4.8 | 8.0 | 0.15 | 0.38 | 0.38 | 91 | 1009.8 |
| 20260506134504 | 6 | 230 | 4.8 | 9.7 | 0.13 | 0.36 | 0.36 | 91 | 1009.8 |
| 20260506133004 | 6 | 221 | 6.4 | 11.3 | 0.10 | 0.30 | 0.30 | 90 | 1009.6 |
| 20260506132503 | 6 | 217 | 4.8 | 11.3 | 0.08 | 0.28 | 0.28 | 90 | 1009.6 |
| 20260506132003 | 6 | 186 | 6.4 | 11.3 | 0.10 | 0.28 | 0.28 | 90 | 1009.5 |
| 20260506131504 | 6 | 217 | 6.4 | 14.5 | 0.10 | 0.28 | 0.28 | 90 | 1009.5 |
| 20260506131003 | 6 | 166 | 6.4 | 14.5 | 0.08 | 0.25 | 0.25 | 90 | 1009.6 |
| 20260506130005 | 6 | 229 | 6.4 | 12.9 | 0.08 | 0.25 | 0.25 | 90 | 1009.5 |
| 20260506125503 | 6 | 199 | 8.0 | 12.9 | 0.05 | 0.23 | 0.23 | 89 | 1009.5 |
| 20260506125003 | 6 | 207 | 8.0 | 14.5 | 0.05 | 0.23 | 0.23 | 88 | 1009.5 |
| 20260506123502 | 6 | 188 | 8.0 | 16.1 | 0.05 | 0.20 | 0.20 | 88 | 1009.4 |
| 20260506123006 | 6 | 140 | 8.0 | 14.5 | 0.05 | 0.20 | 0.20 | 87 | 1009.4 |
| 20260506122003 | 6 | 185 | 8.0 | 16.1 | 0.05 | 0.18 | 0.18 | 88 | 1009.4 |
| 20260506121003 | 6 | 174 | 8.0 | 12.9 | 0.05 | 0.18 | 0.18 | 89 | 1009.5 |
| 20260506120503 | 6 | 201 | 6.4 | 12.9 | 0.05 | 0.18 | 0.18 | 90 | 1009.6 |
| 20260506120005 | 6 | 200 | 6.4 | 12.9 | 0.08 | 0.18 | 0.18 | 90 | 1009.5 |
| 20260506115503 | 6 | 167 | 6.4 | 12.9 | 0.08 | 0.18 | 0.18 | 89 | 1009.6 |
| 20260506115003 | 6 | 218 | 6.4 | 12.9 | 0.08 | 0.18 | 0.18 | 89 | 1009.6 |
| 20260506114503 | 6 | 189 | 6.4 | 9.7 | 0.10 | 0.18 | 0.18 | 89 | 1009.7 |
| 20260506114002 | 6 | 205 | 4.8 | 9.7 | 0.08 | 0.15 | 0.15 | 88 | 1009.7 |
| 20260506113004 | 6 | 242 | 6.4 | 11.3 | 0.10 | 0.15 | 0.15 | 88 | 1009.8 |
| 20260506111503 | 6 | 240 | 6.4 | 12.9 | 0.10 | 0.13 | 0.13 | 88 | 1009.7 |
| 20260506111004 | 6 | 199 | 4.8 | 9.7 | 0.10 | 0.13 | 0.13 | 89 | 1009.7 |
| 20260506110503 | 6 | 200 | 4.8 | 11.3 | 0.10 | 0.13 | 0.13 | 89 | 1009.7 |
| 20260506105503 | 6 | 207 | 3.2 | 6.4 | 0.10 | 0.10 | 0.10 | 88 | 1009.6 |
| 20260506105002 | 6 | 235 | 3.2 | 6.4 | 0.10 | 0.10 | 0.10 | 88 | 1009.8 |
| 20260506104503 | 7 | 231 | 3.2 | 6.4 | 0.08 | 0.08 | 0.08 | 87 | 1009.7 |
| 20260506104003 | 7 | 215 | 4.8 | 8.0 | 0.08 | 0.08 | 0.08 | 87 | 1009.6 |
| 20260506103504 | 7 | 252 | 4.8 | 11.3 | 0.05 | 0.05 | 0.05 | 87 | 1009.5 |
| 20260506103004 | 7 | 262 | 4.8 | 11.3 | 0.05 | 0.05 | 0.05 | 86 | 1009.4 |
| 20260506102503 | 7 | 244 | 4.8 | 11.3 | 0.05 | 0.05 | 0.05 | 86 | 1009.3 |
| 20260506101503 | 7 | 213 | 6.4 | 17.7 | 0.03 | 0.03 | 0.03 | 86 | 1009.2 |
| 20260506101003 | 7 | 258 | 8.0 | 17.7 | 0.03 | 0.03 | 0.03 | 87 | 1009.3 |
| 20260506100502 | 7 | 211 | 8.0 | 17.7 | 0.03 | 0.03 | 0.03 | 87 | 1009.3 |
| 20260506100006 | 7 | 211 | 8.0 | 16.1 | 0.03 | 0.03 | 0.03 | 87 | 1009.2 |
| 20260506095503 | 7 | 200 | 8.0 | 14.5 | 0.00 | 0.00 | 0.00 | 86 | 1009.3 |
| 20260506095002 | 8 | 221 | 8.0 | 14.5 | 0.00 | 0.00 | 0.00 | 87 | 1009.2 |
| 20260506094503 | 8 | 206 | 8.0 | 16.1 | 0.00 | 0.00 | 0.00 | 87 | 1009.3 |
| 20260506094003 | 8 | 198 | 8.0 | 16.1 | 0.00 | 0.00 | 0.00 | 86 | 1009.3 |
| 20260506093003 | 8 | 223 | 9.7 | 17.7 | 0.00 | 0.00 | 0.00 | 85 | 1009.2 |
| 20260506092504 | 8 | 216 | 9.7 | 19.3 | 0.00 | 0.00 | 0.00 | 85 | 1009.2 |
| 20260506091503 | 8 | 235 | 11.3 | 17.7 | 0.00 | 0.00 | 0.00 | 84 | 1009.0 |
| 20260506091003 | 8 | 211 | 12.9 | 17.7 | 0.00 | 0.00 | 0.00 | 84 | 1009.0 |
| 20260506090502 | 8 | 254 | 11.3 | 19.3 | 0.00 | 0.00 | 0.00 | 84 | 1009.1 |
| 20260506090004 | 8 | 222 | 9.7 | 19.3 | 0.00 | 0.00 | 0.00 | 84 | 1008.9 |
| 20260506085501 | 8 | 202 | 8.0 | 14.5 | 0.00 | 0.00 | 0.00 | 84 | 1008.6 |
| 20260506085001 | 8 | 228 | 9.7 | 16.1 | 0.00 | 0.00 | 0.00 | 84 | 1008.8 |
| 20260506084502 | 8 | 200 | 8.0 | 16.1 | 0.00 | 0.00 | 0.00 | 84 | 1008.6 |
| 20260506084001 | 8 | 209 | 8.0 | 14.5 | 0.00 | 0.00 | 0.00 | 84 | 1008.6 |
| 20260506083501 | 8 | 242 | 9.7 | 16.1 | 0.00 | 0.00 | 0.00 | 84 | 1008.8 |
| 20260506083003 | 8 | 238 | 11.3 | 19.3 | 0.00 | 0.00 | 0.00 | 84 | 1008.9 |
| 20260506082501 | 8 | 236 | 11.3 | 19.3 | 0.00 | 0.00 | 0.00 | 84 | 1008.9 |
| 20260506082001 | 8 | 250 | 9.7 | 17.7 | 0.00 | 0.00 | 0.00 | 84 | 1009.0 |
| 20260506081502 | 8 | 236 | 9.7 | 19.3 | 0.00 | 0.00 | 0.00 | 84 | 1009.0 |
| 20260506081001 | 8 | 229 | 9.7 | 20.9 | 0.00 | 0.00 | 0.00 | 84 | 1008.9 |
| 20260506073501 | 8 | 252 | 9.7 | 24.1 | 0.00 | 0.00 | 0.00 | 83 | 1008.8 |
| 20260506073002 | 8 | 199 | 11.3 | 22.5 | 0.00 | 0.00 | 0.00 | 83 | 1008.8 |
| 20260506072502 | 9 | 206 | 11.3 | 22.5 | 0.00 | 0.00 | 0.00 | 83 | 1008.8 |
| 20260506071503 | 9 | 209 | 11.3 | 30.6 | 0.00 | 0.00 | 0.00 | 83 | 1008.5 |
| 20260506070502 | 9 | 232 | 12.9 | 17.7 | 0.00 | 0.00 | 0.00 | 83 | 1008.5 |
| 20260506062501 | 9 | 207 | 11.3 | 25.7 | 0.00 | 0.00 | 0.00 | 84 | 1008.3 |
| 20260506062002 | 9 | 207 | 11.3 | 27.4 | 0.00 | 0.00 | 0.00 | 84 | 1008.4 |
| 20260506061502 | 9 | 244 | 12.9 | 27.4 | 0.00 | 0.00 | 0.00 | 84 | 1008.3 |
| 20260506061002 | 10 | 234 | 12.9 | 22.5 | 0.00 | 0.00 | 0.00 | 84 | 1008.2 |
| 20260506060502 | 10 | 220 | 12.9 | 24.1 | 0.00 | 0.00 | 0.00 | 84 | 1008.1 |